| time (UTC) | temp F | wind direction | speed MPH | gust MPH | rain 1hr in | rain 24hr in | rain mn in | humidity % | barometer mb |
| 20260901203517 | 82 | 0 | 0.0 | 2.0 | 0.00 | 0.66 | 0.48 | 82 | 1013.9 |
| 20260901203034 | 81 | 0 | 0.0 | 0.0 | 0.00 | 0.66 | 0.48 | 81 | 1013.9 |
| 20260901202518 | 81 | 0 | 0.0 | 0.0 | 0.00 | 0.66 | 0.48 | 82 | 1013.9 |
| 20260901202019 | 80 | 0 | 0.0 | 0.0 | 0.00 | 0.66 | 0.48 | 84 | 1013.9 |
| 20260901201537 | 80 | 0 | 0.0 | 1.0 | 0.00 | 0.66 | 0.48 | 85 | 1013.9 |
| 20260901201016 | 80 | 0 | 0.0 | 1.0 | 0.00 | 0.66 | 0.48 | 83 | 1014.0 |
| 20260901200517 | 80 | 0 | 0.0 | 1.0 | 0.00 | 0.66 | 0.48 | 83 | 1014.1 |
| 20260901200036 | 80 | 0 | 0.0 | 1.0 | 0.00 | 0.66 | 0.48 | 83 | 1014.0 |
| 20260901195518 | 81 | 0 | 0.0 | 1.0 | 0.00 | 0.66 | 0.48 | 82 | 1014.0 |
| 20260901195018 | 81 | 0 | 0.0 | 2.0 | 0.00 | 0.66 | 0.48 | 81 | 1014.1 |
| 20260901194538 | 81 | 0 | 0.0 | 2.0 | 0.00 | 0.66 | 0.48 | 81 | 1014.0 |
| 20260901194019 | 81 | 0 | 0.0 | 2.0 | 0.00 | 0.66 | 0.48 | 81 | 1014.0 |
| 20260901193518 | 81 | 0 | 0.0 | 1.0 | 0.00 | 0.66 | 0.48 | 83 | 1014.0 |
| 20260901193036 | 80 | 0 | 0.0 | 8.0 | 0.00 | 0.66 | 0.48 | 83 | 1014.1 |
| 20260901192515 | 80 | 0 | 0.0 | 8.0 | 0.00 | 0.66 | 0.48 | 84 | 1014.0 |
| 20260901192016 | 80 | 0 | 0.0 | 5.0 | 0.00 | 0.66 | 0.48 | 84 | 1013.9 |
| 20260901191540 | 80 | 0 | 0.0 | 4.0 | 0.00 | 0.66 | 0.48 | 84 | 1014.0 |
| 20260901191018 | 79 | 0 | 0.0 | 3.0 | 0.00 | 0.66 | 0.48 | 86 | 1014.1 |
| 20260901190517 | 79 | 0 | 0.0 | 3.0 | 0.00 | 0.66 | 0.48 | 84 | 1014.1 |
| 20260901190035 | 79 | 0 | 0.0 | 4.0 | 0.00 | 0.66 | 0.48 | 85 | 1014.1 |
| 20260901185519 | 79 | 0 | 0.0 | 4.0 | 0.00 | 0.66 | 0.48 | 84 | 1014.2 |
| 20260901185021 | 79 | 0 | 0.0 | 2.0 | 0.00 | 0.66 | 0.48 | 86 | 1014.3 |
| 20260901184544 | 79 | 0 | 0.0 | 2.0 | 0.00 | 0.66 | 0.48 | 85 | 1014.2 |
| 20260901184020 | 78 | 0 | 0.0 | 2.0 | 0.00 | 0.66 | 0.48 | 86 | 1014.3 |
| 20260901183518 | 78 | 0 | 0.0 | 1.0 | 0.00 | 0.66 | 0.48 | 87 | 1014.3 |
| 20260901183036 | 78 | 0 | 0.0 | 0.0 | 0.00 | 0.66 | 0.48 | 88 | 1014.3 |
| 20260901182518 | 77 | 0 | 0.0 | 4.0 | 0.00 | 0.66 | 0.48 | 88 | 1014.3 |
| 20260901182019 | 77 | 0 | 0.0 | 4.0 | 0.00 | 0.66 | 0.48 | 90 | 1014.3 |
| 20260901181536 | 77 | 163 | 0.0 | 4.0 | 0.00 | 0.66 | 0.48 | 89 | 1014.2 |
| 20260901181017 | 77 | 0 | 0.0 | 2.0 | 0.00 | 0.66 | 0.48 | 89 | 1014.4 |
| 20260901180521 | 76 | 0 | 0.0 | 3.0 | 0.00 | 0.66 | 0.48 | 91 | 1014.2 |
| 20260901180039 | 76 | 0 | 0.0 | 3.0 | 0.00 | 0.66 | 0.48 | 91 | 1014.4 |
| 20260901175518 | 76 | 0 | 0.0 | 4.0 | 0.00 | 0.66 | 0.48 | 92 | 1014.3 |
| 20260901175016 | 76 | 0 | 0.0 | 4.0 | 0.00 | 0.66 | 0.48 | 96 | 1014.3 |
| 20260901174537 | 75 | 0 | 0.0 | 3.0 | 0.00 | 0.66 | 0.48 | 95 | 1014.3 |
| 20260901174018 | 75 | 0 | 0.0 | 2.0 | 0.00 | 0.66 | 0.48 | 97 | 1014.3 |
| 20260901173522 | 75 | 0 | 0.0 | 4.0 | 0.00 | 0.66 | 0.48 | 98 | 1014.3 |
| 20260901173037 | 74 | 0 | 0.0 | 4.0 | 0.00 | 0.66 | 0.48 | 98 | 1014.3 |
| 20260901172524 | 74 | 306 | 0.0 | 4.0 | 0.00 | 0.66 | 0.48 | 99 | 1014.4 |
| 20260901172021 | 74 | 303 | 0.0 | 4.0 | 0.01 | 0.66 | 0.48 | 99 | 1014.3 |
| 20260901171541 | 73 | 117 | 0.0 | 3.0 | 0.01 | 0.66 | 0.48 | 99 | 1014.3 |
| 20260901171018 | 73 | 0 | 0.0 | 3.0 | 0.01 | 0.66 | 0.48 | 98 | 1014.4 |
| 20260901170518 | 73 | 0 | 0.0 | 4.0 | 0.01 | 0.66 | 0.48 | 99 | 1014.3 |
| 20260901170034 | 73 | 0 | 0.0 | 6.0 | 0.02 | 0.66 | 0.48 | 98 | 1014.2 |
| 20260901165516 | 73 | 0 | 1.0 | 6.0 | 0.02 | 0.66 | 0.48 | 99 | 1014.1 |
| 20260901165019 | 73 | 0 | 0.0 | 5.0 | 0.02 | 0.66 | 0.48 | 99 | 1014.3 |
| 20260901164533 | 73 | 185 | 0.0 | 4.0 | 0.02 | 0.66 | 0.48 | 99 | 1014.5 |
| 20260901164023 | 72 | 0 | 0.0 | 2.0 | 0.02 | 0.66 | 0.48 | 99 | 1014.7 |
| 20260901163520 | 72 | 0 | 0.0 | 2.0 | 0.02 | 0.66 | 0.48 | 99 | 1014.9 |
| 20260901163035 | 72 | 0 | 0.0 | 1.0 | 0.02 | 0.66 | 0.48 | 99 | 1015.1 |
| 20260901162517 | 71 | 0 | 0.0 | 1.0 | 0.01 | 0.65 | 0.47 | 99 | 1015.2 |
| 20260901162018 | 71 | 0 | 0.0 | 1.0 | 0.01 | 0.65 | 0.47 | 99 | 1015.1 |
| 20260901161538 | 71 | 0 | 0.0 | 1.0 | 0.01 | 0.65 | 0.47 | 99 | 1015.2 |
| 20260901161017 | 71 | 0 | 0.0 | 0.0 | 0.01 | 0.65 | 0.47 | 99 | 1015.2 |
| 20260901160519 | 71 | 0 | 0.0 | 0.0 | 0.02 | 0.65 | 0.47 | 99 | 1015.3 |
| 20260901160038 | 71 | 0 | 0.0 | 0.0 | 0.02 | 0.64 | 0.46 | 99 | 1015.2 |
| 20260901155517 | 71 | 0 | 0.0 | 0.0 | 0.03 | 0.64 | 0.46 | 99 | 1015.2 |
| 20260901155016 | 71 | 0 | 0.0 | 1.0 | 0.04 | 0.64 | 0.46 | 99 | 1015.4 |
| 20260901154537 | 71 | 0 | 0.0 | 1.0 | 0.04 | 0.64 | 0.46 | 99 | 1015.5 |
| 20260901154018 | 71 | 0 | 0.0 | 0.0 | 0.05 | 0.64 | 0.46 | 99 | 1015.2 |
| 20260901153518 | 71 | 0 | 0.0 | 0.0 | 0.06 | 0.64 | 0.46 | 99 | 1015.0 |
| 20260901153034 | 71 | 0 | 0.0 | 0.0 | 0.07 | 0.64 | 0.46 | 99 | 1015.2 |
| 20260901152519 | 71 | 0 | 0.0 | 0.0 | 0.08 | 0.64 | 0.46 | 99 | 1015.5 |
| 20260901152021 | 70 | 0 | 0.0 | 1.0 | 0.08 | 0.64 | 0.46 | 99 | 1015.5 |
| 20260901151537 | 70 | 0 | 0.0 | 1.0 | 0.08 | 0.64 | 0.46 | 99 | 1015.5 |
| 20260901151021 | 70 | 0 | 0.0 | 1.0 | 0.08 | 0.64 | 0.46 | 98 | 1015.7 |
| 20260901150517 | 70 | 0 | 0.0 | 1.0 | 0.07 | 0.63 | 0.45 | 98 | 1015.5 |
| 20260901150035 | 70 | 0 | 0.0 | 0.0 | 0.06 | 0.62 | 0.44 | 98 | 1015.7 |
| 20260901145518 | 70 | 0 | 0.0 | 1.0 | 0.05 | 0.62 | 0.43 | 98 | 1015.8 |
| 20260901145018 | 70 | 0 | 0.0 | 1.0 | 0.05 | 0.61 | 0.42 | 98 | 1015.9 |
| 20260901144534 | 70 | 0 | 0.0 | 0.0 | 0.04 | 0.60 | 0.41 | 98 | 1015.9 |
| 20260901144017 | 70 | 0 | 0.0 | 0.0 | 0.04 | 0.60 | 0.41 | 98 | 1016.1 |
| 20260901143517 | 70 | 0 | 0.0 | 0.0 | 0.03 | 0.58 | 0.40 | 98 | 1016.0 |
| 20260901143037 | 70 | 0 | 0.0 | 0.0 | 0.03 | 0.58 | 0.39 | 99 | 1016.0 |
| 20260901142516 | 70 | 0 | 0.0 | 0.0 | 0.02 | 0.57 | 0.38 | 99 | 1015.8 |
| 20260901142016 | 70 | 0 | 0.0 | 0.0 | 0.02 | 0.57 | 0.38 | 99 | 1015.9 |
| 20260901141539 | 70 | 0 | 0.0 | 0.0 | 0.02 | 0.57 | 0.38 | 99 | 1015.8 |
| 20260901141018 | 70 | 0 | 0.0 | 0.0 | 0.04 | 0.57 | 0.38 | 99 | 1015.8 |
| 20260901140519 | 70 | 0 | 0.0 | 0.0 | 0.04 | 0.57 | 0.38 | 99 | 1015.9 |
| 20260901140037 | 70 | 0 | 0.0 | 0.0 | 0.04 | 0.57 | 0.38 | 98 | 1015.9 |
| 20260901135520 | 69 | 0 | 0.0 | 0.0 | 0.04 | 0.57 | 0.38 | 99 | 1015.8 |
| 20260901135022 | 69 | 0 | 0.0 | 0.0 | 0.03 | 0.56 | 0.37 | 98 | 1015.7 |
| 20260901134539 | 70 | 0 | 0.0 | 0.0 | 0.03 | 0.56 | 0.37 | 98 | 1015.6 |
| 20260901134022 | 70 | 0 | 0.0 | 0.0 | 0.03 | 0.56 | 0.37 | 99 | 1016.0 |
| 20260901133519 | 69 | 0 | 0.0 | 0.0 | 0.02 | 0.55 | 0.36 | 99 | 1015.9 |
| 20260901133035 | 69 | 0 | 0.0 | 0.0 | 0.02 | 0.55 | 0.36 | 98 | 1015.9 |
| 20260901132519 | 69 | 0 | 0.0 | 0.0 | 0.02 | 0.55 | 0.36 | 98 | 1015.9 |
| 20260901132019 | 69 | 0 | 0.0 | 1.0 | 0.02 | 0.55 | 0.36 | 98 | 1015.9 |
| 20260901131539 | 69 | 0 | 0.0 | 1.0 | 0.02 | 0.55 | 0.36 | 98 | 1016.0 |
| 20260901131019 | 69 | 0 | 0.0 | 1.0 | 0.00 | 0.52 | 0.34 | 98 | 1016.3 |
| 20260901130521 | 69 | 0 | 0.0 | 0.0 | 0.00 | 0.52 | 0.34 | 98 | 1015.9 |
| 20260901130039 | 69 | 0 | 0.0 | 0.0 | 0.00 | 0.52 | 0.34 | 98 | 1015.9 |
| 20260901125519 | 69 | 0 | 0.0 | 0.0 | 0.00 | 0.52 | 0.34 | 98 | 1015.9 |
| 20260901125016 | 69 | 0 | 0.0 | 0.0 | 0.00 | 0.52 | 0.34 | 98 | 1015.9 |
| 20260901124539 | 69 | 0 | 0.0 | 0.0 | 0.00 | 0.52 | 0.34 | 98 | 1015.9 |
| 20260901124018 | 69 | 0 | 0.0 | 0.0 | 0.00 | 0.52 | 0.34 | 98 | 1015.9 |
| 20260901123516 | 69 | 0 | 0.0 | 0.0 | 0.00 | 0.52 | 0.34 | 98 | 1015.9 |
| 20260901123040 | 69 | 0 | 0.0 | 0.0 | 0.00 | 0.52 | 0.34 | 98 | 1015.9 |
| 20260901122517 | 69 | 0 | 0.0 | 0.0 | 0.00 | 0.52 | 0.34 | 98 | 1016.0 |
| 20260901122020 | 69 | 0 | 0.0 | 0.0 | 0.00 | 0.52 | 0.34 | 99 | 1015.7 |
| 20260901121538 | 69 | 0 | 0.0 | 0.0 | 0.00 | 0.52 | 0.34 | 99 | 1015.8 |
| 20260901121022 | 69 | 0 | 0.0 | 0.0 | 0.00 | 0.52 | 0.34 | 99 | 1015.8 |
| 20260901120519 | 69 | 0 | 0.0 | 0.0 | 0.00 | 0.52 | 0.34 | 99 | 1015.8 |
| 20260901120037 | 69 | 0 | 0.0 | 0.0 | 0.00 | 0.52 | 0.34 | 98 | 1015.7 |
| 20260901115517 | 69 | 0 | 0.0 | 0.0 | 0.01 | 0.52 | 0.34 | 98 | 1015.7 |
| 20260901115020 | 68 | 0 | 0.0 | 0.0 | 0.01 | 0.52 | 0.34 | 98 | 1015.6 |
| 20260901114550 | 68 | 0 | 0.0 | 0.0 | 0.01 | 0.52 | 0.34 | 98 | 1015.6 |
| 20260901114019 | 68 | 0 | 0.0 | 0.0 | 0.01 | 0.52 | 0.34 | 98 | 1015.4 |
| 20260901113519 | 68 | 0 | 0.0 | 0.0 | 0.01 | 0.52 | 0.34 | 98 | 1015.6 |
| 20260901113037 | 68 | 0 | 0.0 | 0.0 | 0.01 | 0.52 | 0.34 | 98 | 1015.7 |
| 20260901112518 | 68 | 0 | 0.0 | 0.0 | 0.01 | 0.52 | 0.34 | 98 | 1015.9 |
| 20260901112017 | 68 | 0 | 0.0 | 0.0 | 0.01 | 0.52 | 0.34 | 98 | 1015.8 |
| 20260901111534 | 68 | 0 | 0.0 | 0.0 | 0.01 | 0.52 | 0.34 | 98 | 1015.8 |
| 20260901111021 | 68 | 0 | 0.0 | 0.0 | 0.01 | 0.52 | 0.34 | 98 | 1016.0 |
| 20260901110518 | 68 | 0 | 0.0 | 0.0 | 0.01 | 0.52 | 0.34 | 98 | 1016.0 |
| 20260901110040 | 68 | 0 | 0.0 | 0.0 | 0.01 | 0.52 | 0.34 | 98 | 1015.9 |
| 20260901105517 | 68 | 0 | 0.0 | 0.0 | 0.00 | 0.52 | 0.33 | 98 | 1015.9 |
| 20260901105016 | 68 | 0 | 0.0 | 0.0 | 0.00 | 0.52 | 0.33 | 98 | 1015.5 |
| 20260901104535 | 67 | 0 | 0.0 | 0.0 | 0.00 | 0.52 | 0.33 | 98 | 1015.7 |
| 20260901104020 | 67 | 0 | 0.0 | 0.0 | 0.00 | 0.52 | 0.33 | 98 | 1015.9 |
| 20260901103515 | 67 | 0 | 0.0 | 0.0 | 0.00 | 0.52 | 0.33 | 98 | 1015.9 |
| 20260901103037 | 67 | 0 | 0.0 | 0.0 | 0.00 | 0.52 | 0.33 | 98 | 1015.9 |
| 20260901102519 | 67 | 0 | 0.0 | 0.0 | 0.00 | 0.52 | 0.33 | 98 | 1016.0 |
| 20260901102019 | 68 | 0 | 0.0 | 0.0 | 0.00 | 0.52 | 0.33 | 98 | 1015.9 |
| 20260901101534 | 68 | 0 | 0.0 | 0.0 | 0.00 | 0.52 | 0.33 | 98 | 1015.9 |
| 20260901101018 | 68 | 0 | 0.0 | 0.0 | 0.00 | 0.52 | 0.33 | 98 | 1015.8 |
| 20260901100519 | 68 | 0 | 0.0 | 0.0 | 0.00 | 0.52 | 0.33 | 98 | 1015.8 |
| 20260901100040 | 68 | 0 | 0.0 | 0.0 | 0.00 | 0.52 | 0.33 | 98 | 1015.8 |
| 20260901095515 | 68 | 0 | 0.0 | 0.0 | 0.00 | 0.52 | 0.33 | 98 | 1015.8 |
| 20260901095019 | 68 | 0 | 0.0 | 0.0 | 0.00 | 0.52 | 0.33 | 98 | 1015.7 |
| 20260901094536 | 68 | 0 | 0.0 | 0.0 | 0.00 | 0.52 | 0.33 | 98 | 1015.7 |
| 20260901094020 | 68 | 0 | 0.0 | 0.0 | 0.00 | 0.52 | 0.33 | 98 | 1015.6 |
| 20260901093518 | 68 | 0 | 0.0 | 0.0 | 0.00 | 0.52 | 0.33 | 98 | 1015.6 |
| 20260901093036 | 68 | 0 | 0.0 | 0.0 | 0.00 | 0.52 | 0.33 | 98 | 1015.8 |
| 20260901092518 | 68 | 0 | 0.0 | 0.0 | 0.00 | 0.52 | 0.33 | 98 | 1015.8 |
| 20260901092022 | 68 | 0 | 0.0 | 0.0 | 0.00 | 0.52 | 0.33 | 98 | 1015.9 |
| 20260901091543 | 68 | 0 | 0.0 | 0.0 | 0.00 | 0.52 | 0.33 | 98 | 1015.8 |
| 20260901091019 | 68 | 0 | 0.0 | 0.0 | 0.00 | 0.52 | 0.33 | 98 | 1015.8 |
| 20260901090515 | 68 | 0 | 0.0 | 0.0 | 0.00 | 0.52 | 0.33 | 98 | 1015.8 |
| 20260901090033 | 68 | 0 | 0.0 | 0.0 | 0.00 | 0.52 | 0.33 | 98 | 1015.7 |
| 20260901085516 | 68 | 0 | 0.0 | 0.0 | 0.00 | 0.52 | 0.33 | 98 | 1015.7 |
| 20260901085020 | 68 | 0 | 0.0 | 0.0 | 0.00 | 0.52 | 0.33 | 98 | 1015.9 |
| 20260901084534 | 68 | 0 | 0.0 | 0.0 | 0.00 | 0.52 | 0.33 | 98 | 1015.8 |
| 20260901084017 | 68 | 0 | 0.0 | 0.0 | 0.00 | 0.52 | 0.33 | 98 | 1016.0 |
| 20260901083521 | 68 | 0 | 0.0 | 0.0 | 0.00 | 0.52 | 0.33 | 98 | 1016.0 |
| 20260901083037 | 68 | 0 | 0.0 | 0.0 | 0.00 | 0.52 | 0.33 | 98 | 1016.0 |
| 20260901082516 | 68 | 0 | 0.0 | 0.0 | 0.00 | 0.52 | 0.33 | 98 | 1016.1 |
| 20260901082018 | 68 | 0 | 0.0 | 0.0 | 0.00 | 0.52 | 0.33 | 98 | 1016.2 |
| 20260901081539 | 68 | 0 | 0.0 | 0.0 | 0.00 | 0.52 | 0.33 | 98 | 1016.1 |
| 20260901081015 | 68 | 0 | 0.0 | 0.0 | 0.00 | 0.52 | 0.33 | 98 | 1016.2 |
| 20260901080519 | 68 | 0 | 0.0 | 0.0 | 0.00 | 0.52 | 0.33 | 98 | 1016.2 |
| 20260901080053 | 68 | 0 | 0.0 | 0.0 | 0.00 | 0.52 | 0.33 | 98 | 1016.1 |
| 20260901075518 | 68 | 0 | 0.0 | 0.0 | 0.00 | 0.52 | 0.33 | 98 | 1016.1 |
| 20260901075018 | 68 | 0 | 0.0 | 0.0 | 0.00 | 0.52 | 0.33 | 98 | 1016.2 |
| 20260901074535 | 68 | 0 | 0.0 | 0.0 | 0.00 | 0.52 | 0.33 | 98 | 1016.2 |
| 20260901074018 | 68 | 0 | 0.0 | 0.0 | 0.00 | 0.52 | 0.33 | 98 | 1016.3 |
| 20260901073519 | 68 | 0 | 0.0 | 0.0 | 0.00 | 0.52 | 0.33 | 98 | 1016.3 |
| 20260901073038 | 68 | 0 | 0.0 | 0.0 | 0.00 | 0.52 | 0.33 | 98 | 1016.3 |
| 20260901072517 | 68 | 0 | 0.0 | 0.0 | 0.00 | 0.52 | 0.33 | 98 | 1016.3 |
| 20260901072016 | 68 | 0 | 0.0 | 0.0 | 0.00 | 0.52 | 0.33 | 98 | 1016.4 |
| 20260901071536 | 68 | 0 | 0.0 | 0.0 | 0.00 | 0.52 | 0.33 | 98 | 1016.3 |
| 20260901071017 | 68 | 0 | 0.0 | 0.0 | 0.00 | 0.52 | 0.33 | 98 | 1016.5 |
| 20260901070517 | 68 | 0 | 0.0 | 0.0 | 0.00 | 0.52 | 0.33 | 98 | 1016.5 |
| 20260901070038 | 68 | 0 | 0.0 | 0.0 | 0.01 | 0.52 | 0.33 | 98 | 1016.5 |
| 20260901065516 | 68 | 0 | 0.0 | 0.0 | 0.01 | 0.52 | 0.33 | 98 | 1016.5 |
| 20260901065019 | 68 | 0 | 0.0 | 0.0 | 0.01 | 0.52 | 0.33 | 98 | 1016.5 |
| 20260901064539 | 68 | 0 | 0.0 | 0.0 | 0.01 | 0.52 | 0.33 | 98 | 1016.6 |
| 20260901064016 | 68 | 0 | 0.0 | 0.0 | 0.01 | 0.52 | 0.33 | 98 | 1016.6 |
| 20260901063518 | 68 | 0 | 0.0 | 0.0 | 0.01 | 0.52 | 0.33 | 98 | 1016.6 |
| 20260901063039 | 68 | 0 | 0.0 | 0.0 | 0.01 | 0.52 | 0.33 | 98 | 1016.6 |
| 20260901062519 | 68 | 0 | 0.0 | 0.0 | 0.01 | 0.52 | 0.33 | 98 | 1016.6 |
| 20260901062015 | 68 | 0 | 0.0 | 0.0 | 0.01 | 0.52 | 0.33 | 98 | 1016.7 |
| 20260901061535 | 68 | 0 | 0.0 | 0.0 | 0.01 | 0.52 | 0.33 | 98 | 1016.7 |
| 20260901061017 | 68 | 0 | 0.0 | 0.0 | 0.01 | 0.52 | 0.33 | 98 | 1016.7 |
| 20260901060520 | 68 | 0 | 0.0 | 0.0 | 0.01 | 0.52 | 0.33 | 98 | 1016.7 |
| 20260901060038 | 68 | 0 | 0.0 | 0.0 | 0.00 | 0.51 | 0.32 | 98 | 1016.8 |
| 20260901055518 | 68 | 0 | 0.0 | 0.0 | 0.01 | 0.51 | 0.32 | 98 | 1016.7 |
| 20260901055016 | 68 | 0 | 0.0 | 0.0 | 0.02 | 0.51 | 0.32 | 98 | 1016.7 |
| 20260901054537 | 68 | 0 | 0.0 | 0.0 | 0.04 | 0.51 | 0.32 | 98 | 1016.9 |
| 20260901054018 | 68 | 0 | 0.0 | 0.0 | 0.04 | 0.51 | 0.32 | 97 | 1016.9 |
| 20260901053516 | 68 | 0 | 0.0 | 0.0 | 0.05 | 0.51 | 0.32 | 97 | 1016.8 |
| 20260901053034 | 68 | 0 | 0.0 | 0.0 | 0.06 | 0.51 | 0.32 | 97 | 1016.9 |
| 20260901052517 | 68 | 0 | 0.0 | 0.0 | 0.08 | 0.51 | 0.32 | 97 | 1016.9 |
| 20260901052021 | 68 | 0 | 0.0 | 3.0 | 0.15 | 0.51 | 0.32 | 97 | 1017.1 |
| 20260901051537 | 68 | 0 | 0.0 | 3.0 | 0.23 | 0.51 | 0.32 | 97 | 1017.1 |
| 20260901051018 | 68 | 0 | 0.0 | 3.0 | 0.26 | 0.51 | 0.32 | 97 | 1017.2 |
| 20260901050519 | 68 | 0 | 0.0 | 1.0 | 0.29 | 0.51 | 0.32 | 97 | 1017.3 |
| 20260901050036 | 68 | 0 | 0.0 | 1.0 | 0.32 | 0.51 | 0.32 | 97 | 1017.3 |
| 20260901045517 | 68 | 0 | 0.0 | 1.0 | 0.32 | 0.50 | 0.31 | 97 | 1017.1 |
| 20260901045015 | 68 | 0 | 0.0 | 1.0 | 0.32 | 0.48 | 0.29 | 97 | 1017.2 |
| 20260901044533 | 68 | 0 | 0.0 | 1.0 | 0.33 | 0.47 | 0.28 | 97 | 1017.2 |
| 20260901044018 | 68 | 0 | 0.0 | 0.0 | 0.35 | 0.47 | 0.28 | 97 | 1017.2 |
| 20260901043518 | 68 | 0 | 0.0 | 1.0 | 0.36 | 0.46 | 0.27 | 97 | 1017.4 |
| 20260901043035 | 68 | 0 | 0.0 | 1.0 | 0.36 | 0.45 | 0.26 | 97 | 1017.3 |
| 20260901042515 | 68 | 0 | 0.0 | 1.0 | 0.34 | 0.42 | 0.23 | 97 | 1017.3 |
| 20260901042020 | 68 | 0 | 0.0 | 0.0 | 0.26 | 0.33 | 0.14 | 97 | 1017.3 |
| 20260901041542 | 68 | 0 | 0.0 | 0.0 | 0.21 | 0.27 | 0.08 | 97 | 1017.4 |
| 20260901041017 | 68 | 0 | 0.0 | 0.0 | 0.19 | 0.24 | 0.05 | 97 | 1017.4 |
| 20260901040516 | 68 | 0 | 0.0 | 0.0 | 0.16 | 0.21 | 0.02 | 97 | 1017.4 |
| 20260901040040 | 68 | 0 | 0.0 | 0.0 | 0.17 | 0.19 | 0.00 | 97 | 1017.5 |
| 20260901035520 | 68 | 0 | 0.0 | 0.0 | 0.16 | 0.18 | 0.18 | 97 | 1017.4 |
| 20260901035017 | 68 | 0 | 0.0 | 0.0 | 0.13 | 0.15 | 0.15 | 97 | 1017.5 |
| 20260901034533 | 68 | 0 | 0.0 | 0.0 | 0.12 | 0.14 | 0.14 | 97 | 1017.5 |
| 20260901034017 | 68 | 0 | 0.0 | 0.0 | 0.10 | 0.12 | 0.12 | 97 | 1017.5 |
| 20260901033519 | 68 | 0 | 0.0 | 0.0 | 0.08 | 0.10 | 0.10 | 97 | 1017.6 |
| 20260901033035 | 68 | 0 | 0.0 | 0.0 | 0.07 | 0.09 | 0.09 | 97 | 1017.7 |
| 20260901032518 | 68 | 0 | 0.0 | 0.0 | 0.06 | 0.08 | 0.08 | 97 | 1017.7 |
| 20260901032019 | 68 | 0 | 0.0 | 0.0 | 0.05 | 0.07 | 0.07 | 97 | 1017.7 |
| 20260901031538 | 68 | 0 | 0.0 | 0.0 | 0.04 | 0.06 | 0.06 | 97 | 1017.8 |
| 20260901031016 | 68 | 0 | 0.0 | 0.0 | 0.03 | 0.05 | 0.05 | 97 | 1017.8 |
| 20260901030516 | 68 | 0 | 0.0 | 0.0 | 0.02 | 0.04 | 0.04 | 96 | 1017.8 |
| 20260901030034 | 68 | 0 | 0.0 | 0.0 | 0.00 | 0.02 | 0.02 | 96 | 1017.8 |
| 20260901025519 | 68 | 0 | 0.0 | 0.0 | 0.01 | 0.02 | 0.02 | 96 | 1017.8 |
| 20260901025022 | 68 | 0 | 0.0 | 0.0 | 0.01 | 0.02 | 0.02 | 96 | 1017.8 |
| 20260901024535 | 68 | 0 | 0.0 | 0.0 | 0.01 | 0.02 | 0.02 | 96 | 1017.7 |
| 20260901024021 | 68 | 0 | 0.0 | 0.0 | 0.01 | 0.02 | 0.02 | 96 | 1017.8 |
| 20260901023515 | 68 | 0 | 0.0 | 0.0 | 0.01 | 0.02 | 0.02 | 96 | 1017.9 |
| 20260901023036 | 68 | 0 | 0.0 | 0.0 | 0.01 | 0.02 | 0.02 | 96 | 1017.8 |
| 20260901022521 | 68 | 0 | 0.0 | 0.0 | 0.01 | 0.02 | 0.02 | 96 | 1018.0 |
| 20260901022024 | 68 | 0 | 0.0 | 0.0 | 0.01 | 0.02 | 0.02 | 96 | 1018.0 |
| 20260901021533 | 68 | 0 | 0.0 | 0.0 | 0.01 | 0.02 | 0.02 | 96 | 1017.9 |
| 20260901021017 | 69 | 0 | 0.0 | 0.0 | 0.01 | 0.02 | 0.02 | 96 | 1018.0 |
| 20260901020516 | 69 | 0 | 0.0 | 0.0 | 0.01 | 0.02 | 0.02 | 96 | 1018.0 |
| 20260901020035 | 69 | 0 | 0.0 | 0.0 | 0.01 | 0.02 | 0.02 | 96 | 1018.1 |
| 20260901015518 | 69 | 0 | 0.0 | 0.0 | 0.00 | 0.01 | 0.01 | 96 | 1018.2 |
| 20260901015020 | 69 | 0 | 0.0 | 0.0 | 0.00 | 0.01 | 0.01 | 96 | 1018.3 |
| 20260901014536 | 69 | 0 | 0.0 | 0.0 | 0.00 | 0.01 | 0.01 | 96 | 1018.3 |
| 20260901014019 | 69 | 0 | 0.0 | 0.0 | 0.00 | 0.01 | 0.01 | 96 | 1018.2 |
| 20260901013520 | 69 | 0 | 0.0 | 0.0 | 0.00 | 0.01 | 0.01 | 96 | 1018.1 |
| 20260901013053 | 69 | 0 | 0.0 | 0.0 | 0.00 | 0.01 | 0.01 | 96 | 1018.1 |
| 20260901012519 | 69 | 0 | 0.0 | 0.0 | 0.00 | 0.01 | 0.01 | 96 | 1018.1 |
| 20260901012016 | 69 | 0 | 0.0 | 0.0 | 0.00 | 0.01 | 0.01 | 96 | 1018.0 |
| 20260901011540 | 69 | 0 | 0.0 | 0.0 | 0.00 | 0.01 | 0.01 | 96 | 1018.1 |
| 20260901011018 | 69 | 0 | 0.0 | 0.0 | 0.00 | 0.01 | 0.01 | 96 | 1018.2 |
| 20260901010516 | 69 | 0 | 0.0 | 0.0 | 0.00 | 0.01 | 0.01 | 96 | 1018.2 |
| 20260901010036 | 69 | 0 | 0.0 | 0.0 | 0.00 | 0.01 | 0.01 | 96 | 1018.2 |
| 20260901005517 | 69 | 0 | 0.0 | 0.0 | 0.00 | 0.01 | 0.01 | 95 | 1018.2 |
| 20260901005019 | 69 | 0 | 0.0 | 0.0 | 0.00 | 0.01 | 0.01 | 95 | 1018.2 |
| 20260901004538 | 69 | 0 | 0.0 | 0.0 | 0.00 | 0.01 | 0.01 | 95 | 1018.3 |
| 20260901004018 | 69 | 0 | 0.0 | 0.0 | 0.00 | 0.01 | 0.01 | 95 | 1018.2 |
| 20260901003516 | 69 | 0 | 0.0 | 0.0 | 0.00 | 0.01 | 0.01 | 95 | 1018.2 |
| 20260901003036 | 69 | 0 | 0.0 | 0.0 | 0.00 | 0.01 | 0.01 | 95 | 1018.1 |
| 20260901002519 | 69 | 0 | 0.0 | 0.0 | 0.00 | 0.01 | 0.01 | 95 | 1018.0 |
| 20260901002018 | 69 | 0 | 0.0 | 0.0 | 0.00 | 0.01 | 0.01 | 95 | 1018.1 |
| 20260901001537 | 69 | 0 | 0.0 | 0.0 | 0.00 | 0.01 | 0.01 | 95 | 1018.1 |
| 20260901001018 | 69 | 0 | 0.0 | 0.0 | 0.00 | 0.01 | 0.01 | 95 | 1018.1 |
| 20260901000517 | 69 | 0 | 0.0 | 0.0 | 0.00 | 0.01 | 0.01 | 95 | 1018.1 |
| 20260901000037 | 69 | 0 | 0.0 | 0.0 | 0.00 | 0.01 | 0.01 | 94 | 1018.2 |
| 20260831235516 | 69 | 0 | 0.0 | 0.0 | 0.00 | 0.02 | 0.01 | 94 | 1018.2 |
| 20260831235016 | 69 | 0 | 0.0 | 0.0 | 0.00 | 0.02 | 0.01 | 94 | 1018.2 |
| 20260831234543 | 69 | 0 | 0.0 | 0.0 | 0.00 | 0.02 | 0.01 | 94 | 1018.2 |
| 20260831234018 | 69 | 0 | 0.0 | 0.0 | 0.00 | 0.02 | 0.01 | 94 | 1018.2 |
| 20260831233518 | 69 | 0 | 0.0 | 0.0 | 0.00 | 0.02 | 0.01 | 94 | 1018.2 |
| 20260831233036 | 69 | 0 | 0.0 | 0.0 | 0.00 | 0.02 | 0.01 | 94 | 1018.1 |
| 20260831232517 | 70 | 0 | 0.0 | 0.0 | 0.00 | 0.02 | 0.01 | 93 | 1018.2 |
| 20260831232017 | 70 | 0 | 0.0 | 0.0 | 0.00 | 0.02 | 0.01 | 93 | 1018.2 |
| 20260831231536 | 70 | 0 | 0.0 | 0.0 | 0.00 | 0.02 | 0.01 | 93 | 1018.3 |
| 20260831231018 | 70 | 0 | 0.0 | 0.0 | 0.00 | 0.02 | 0.01 | 93 | 1018.2 |
| 20260831230522 | 70 | 0 | 0.0 | 0.0 | 0.00 | 0.02 | 0.01 | 93 | 1018.3 |
| 20260831230039 | 70 | 0 | 0.0 | 0.0 | 0.00 | 0.02 | 0.01 | 92 | 1018.3 |
| 20260831225521 | 70 | 0 | 0.0 | 0.0 | 0.00 | 0.02 | 0.01 | 92 | 1018.4 |
| 20260831225015 | 70 | 0 | 0.0 | 0.0 | 0.00 | 0.02 | 0.01 | 92 | 1018.4 |
| 20260831224536 | 70 | 0 | 0.0 | 0.0 | 0.00 | 0.02 | 0.01 | 91 | 1018.4 |
| 20260831224018 | 71 | 0 | 0.0 | 0.0 | 0.00 | 0.02 | 0.01 | 91 | 1018.5 |
| 20260831223518 | 71 | 0 | 0.0 | 0.0 | 0.00 | 0.02 | 0.01 | 90 | 1018.4 |
| 20260831223038 | 71 | 0 | 0.0 | 0.0 | 0.00 | 0.02 | 0.01 | 89 | 1018.5 |
| 20260831222516 | 71 | 0 | 0.0 | 0.0 | 0.00 | 0.02 | 0.01 | 89 | 1018.6 |
| 20260831222016 | 71 | 0 | 0.0 | 0.0 | 0.00 | 0.02 | 0.01 | 88 | 1018.6 |
| 20260831221536 | 72 | 0 | 0.0 | 1.0 | 0.00 | 0.02 | 0.01 | 88 | 1018.5 |
| 20260831221015 | 72 | 0 | 0.0 | 1.0 | 0.00 | 0.02 | 0.01 | 87 | 1018.7 |
| 20260831220519 | 72 | 0 | 0.0 | 0.0 | 0.00 | 0.02 | 0.01 | 87 | 1018.5 |
| 20260831220034 | 72 | 0 | 0.0 | 1.0 | 0.00 | 0.02 | 0.01 | 87 | 1018.6 |
| 20260831215518 | 72 | 0 | 0.0 | 1.0 | 0.00 | 0.02 | 0.01 | 87 | 1018.6 |
| 20260831215016 | 72 | 0 | 0.0 | 0.0 | 0.00 | 0.02 | 0.01 | 88 | 1018.6 |
| 20260831214539 | 72 | 0 | 0.0 | 0.0 | 0.00 | 0.02 | 0.01 | 88 | 1018.6 |
| 20260831214019 | 71 | 0 | 0.0 | 2.0 | 0.00 | 0.02 | 0.01 | 88 | 1018.5 |
| 20260831213517 | 71 | 0 | 0.0 | 2.0 | 0.00 | 0.02 | 0.01 | 88 | 1018.6 |
| 20260831213035 | 71 | 250 | 0.0 | 1.0 | 0.00 | 0.02 | 0.01 | 88 | 1018.5 |
| 20260831212518 | 71 | 0 | 0.0 | 1.0 | 0.00 | 0.02 | 0.01 | 88 | 1018.6 |
| 20260831212019 | 71 | 0 | 0.0 | 1.0 | 0.00 | 0.02 | 0.01 | 87 | 1018.6 |
| 20260831211535 | 71 | 0 | 0.0 | 1.0 | 0.00 | 0.02 | 0.01 | 87 | 1018.6 |
| 20260831211016 | 71 | 0 | 0.0 | 0.0 | 0.00 | 0.02 | 0.01 | 88 | 1018.7 |
| 20260831210517 | 71 | 0 | 0.0 | 0.0 | 0.00 | 0.02 | 0.01 | 88 | 1018.7 |
| 20260831210032 | 71 | 0 | 0.0 | 1.0 | 0.00 | 0.02 | 0.01 | 87 | 1018.7 |
| 20260831205519 | 71 | 0 | 0.0 | 2.0 | 0.00 | 0.02 | 0.01 | 87 | 1018.8 |
| 20260831205019 | 72 | 0 | 0.0 | 2.0 | 0.00 | 0.02 | 0.01 | 87 | 1018.8 |
| 20260831204540 | 72 | 0 | 0.0 | 2.0 | 0.00 | 0.02 | 0.01 | 86 | 1018.8 |
| 20260831204020 | 72 | 0 | 0.0 | 4.0 | 0.00 | 0.02 | 0.01 | 86 | 1018.9 |